This is the latest recevied weather packets stored in our database for station/object IV3CLI-10. If no packets are shown the sender has not sent any weather packets the latest 10 day(s).
| Time | Temp. | Humidity | Pressure | Rain* | Wind** | Luminosity | Snow |
|---|---|---|---|---|---|---|---|
| 1777964991 | 18.33° C | 100% | 1014.7 hPa | - | - | - | - |
| 1777964091 | 17.78° C | 100% | 1014.7 hPa | - | - | - | - |
| 1777963195 | 17.78° C | 100% | 1014.8 hPa | - | - | - | - |
| 1777962291 | 16.67° C | 100% | 1014.6 hPa | - | - | - | - |
| 1777961391 | 16.67° C | 100% | 1014.6 hPa | - | - | - | - |
| 1777960486 | 15° C | 100% | 1014.5 hPa | - | - | - | - |
| 1777959586 | 14.44° C | 100% | 1014.3 hPa | - | - | - | - |
| 1777958686 | 13.89° C | 100% | 1014.2 hPa | - | - | - | - |
| 1777957786 | 13.33° C | 100% | 1014.2 hPa | - | - | - | - |
| 1777956890 | 13.33° C | 100% | 1014.2 hPa | - | - | - | - |
| 1777955986 | 12.78° C | 100% | 1014 hPa | - | - | - | - |
| 1777955086 | 12.78° C | 100% | 1014.2 hPa | - | - | - | - |
| 1777954186 | 12.22° C | 100% | 1014 hPa | - | - | - | - |
| 1777953286 | 11.67° C | 100% | 1014.1 hPa | - | - | - | - |
| 1777952386 | 11.67° C | 100% | 1014.1 hPa | - | - | - | - |
| 1777951486 | 11.11° C | 100% | 1014.1 hPa | - | - | - | - |
| 1777950585 | 11.11° C | 100% | 1014.1 hPa | - | - | - | - |
| 1777949685 | 11.11° C | 100% | 1014.2 hPa | - | - | - | - |
| 1777948785 | 11.11° C | 100% | 1014.2 hPa | - | - | - | - |
| 1777947885 | 10.56° C | 100% | 1014.4 hPa | - | - | - | - |
| 1777946985 | 11.11° C | 100% | 1014.4 hPa | - | - | - | - |
| 1777946085 | 11.11° C | 100% | 1014.6 hPa | - | - | - | - |
| 1777945185 | 11.11° C | 100% | 1014.7 hPa | - | - | - | - |
| 1777944285 | 11.11° C | 100% | 1014.9 hPa | - | - | - | - |
| 1777943384 | 11.11° C | 100% | 1014.9 hPa | - | - | - | - |
* Rain since midnight (hover to see other rain measurements)
** Current wind speed in m/s (hover to see current wind gust speed)